TimeMST,TemperatureF,Dew PointF,Humidity,Sea Level PressureIn,VisibilityMPH,Wind Direction,Wind SpeedMPH,Gust SpeedMPH,PrecipitationIn,Events,Conditions,WindDirDegrees,DateUTC
12:14 AM,19.4,17.6,93,29.85,2.0,NNE,4.6,-,0.00,Snow,Light Snow,30,2012-12-13 07:14:00
12:37 AM,19.4,15.8,86,29.86,3.0,NE,4.6,-,0.00,Snow,Light Snow,40,2012-12-13 07:37:00
12:56 AM,19.0,16.0,88,29.95,5.0,ENE,4.6,-,0.00,,Overcast,60,2012-12-13 07:56:00
1:56 AM,19.0,16.0,88,29.96,6.0,East,5.8,-,N/A,,Overcast,80,2012-12-13 08:56:00
2:44 AM,17.6,15.8,93,29.87,7.0,ESE,3.5,-,N/A,,Overcast,110,2012-12-13 09:44:00
2:56 AM,18.0,16.0,92,29.98,7.0,SSE,4.6,-,N/A,,Overcast,150,2012-12-13 09:56:00
3:31 AM,19.4,17.6,93,29.88,8.0,Calm,Calm,-,N/A,,Overcast,0,2012-12-13 10:31:00
3:56 AM,19.9,17.1,89,30.00,8.0,Calm,Calm,-,N/A,,Overcast,0,2012-12-13 10:56:00
4:25 AM,21.2,17.6,86,29.89,8.0,South,5.8,-,N/A,,Overcast,170,2012-12-13 11:25:00
4:56 AM,23.0,19.0,85,30.01,7.0,South,9.2,-,N/A,,Overcast,170,2012-12-13 11:56:00
5:48 AM,23.0,19.4,86,29.91,7.0,South,5.8,-,N/A,,Overcast,190,2012-12-13 12:48:00
5:56 AM,23.0,19.9,88,30.01,7.0,SSW,5.8,-,N/A,,Overcast,210,2012-12-13 12:56:00
6:56 AM,23.0,21.0,92,30.00,5.0,South,6.9,-,N/A,,Mostly Cloudy,170,2012-12-13 13:56:00
7:04 AM,21.2,19.4,93,29.89,4.0,SSE,8.1,-,N/A,,Mostly Cloudy,160,2012-12-13 14:04:00
7:12 AM,23.0,21.2,93,29.89,3.0,South,8.1,-,N/A,,Mostly Cloudy,170,2012-12-13 14:12:00
7:18 AM,23.0,21.2,93,29.89,1.8,South,9.2,-,N/A,,Mostly Cloudy,180,2012-12-13 14:18:00
7:31 AM,23.0,21.2,93,29.89,0.2,South,12.7,-,N/A,Fog,Light Freezing Fog,170,2012-12-13 14:31:00
7:56 AM,23.0,21.9,96,30.00,0.2,South,13.8,-,N/A,Fog,Light Freezing Fog,180,2012-12-13 14:56:00
8:56 AM,25.0,24.1,96,30.02,0.2,South,18.4,-,N/A,Fog,Light Freezing Fog,180,2012-12-13 15:56:00
9:44 AM,26.6,26.6,100,29.91,0.5,South,18.4,-,N/A,Fog,Light Freezing Fog,180,2012-12-13 16:44:00
9:56 AM,27.0,26.1,96,30.02,0.5,South,16.1,-,N/A,Fog,Light Freezing Fog,190,2012-12-13 16:56:00
10:27 AM,28.4,26.6,93,29.91,1.2,South,15.0,-,N/A,,Overcast,190,2012-12-13 17:27:00
10:56 AM,28.9,28.0,96,30.01,1.0,South,12.7,-,N/A,,Overcast,190,2012-12-13 17:56:00
11:04 AM,28.4,28.4,100,29.90,0.8,South,12.7,-,N/A,,Overcast,190,2012-12-13 18:04:00
11:27 AM,28.4,28.4,100,29.90,2.0,SSW,13.8,-,N/A,,Overcast,200,2012-12-13 18:27:00
11:56 AM,28.9,27.0,92,30.00,4.0,South,10.4,-,N/A,,Overcast,190,2012-12-13 18:56:00
12:56 PM,30.0,28.0,92,29.98,9.0,SW,13.8,-,N/A,,Overcast,230,2012-12-13 19:56:00
1:56 PM,30.9,28.9,92,29.96,10.0,SSW,11.5,-,N/A,,Overcast,200,2012-12-13 20:56:00
2:56 PM,30.9,28.9,92,29.95,10.0,South,11.5,-,N/A,,Overcast,190,2012-12-13 21:56:00
4:45 PM,28.4,28.4,100,29.86,1.8,South,8.1,-,N/A,,Overcast,190,2012-12-13 23:45:00
5:47 PM,30.2,28.4,93,29.85,0.8,SSW,8.1,-,N/A,,Mist,200,2012-12-14 00:47:00
5:56 PM,30.0,28.9,96,29.94,0.5,South,9.2,-,N/A,Fog,Light Freezing Fog,190,2012-12-14 00:56:00
6:56 PM,28.9,28.0,96,29.93,0.5,South,11.5,-,N/A,Fog,Light Freezing Fog,170,2012-12-14 01:56:00
7:56 PM,28.0,28.0,100,29.92,0.5,South,11.5,-,N/A,Fog,Light Freezing Fog,170,2012-12-14 02:56:00
8:56 PM,27.0,26.1,96,29.91,0.5,South,12.7,-,N/A,Fog,Light Freezing Fog,170,2012-12-14 03:56:00
9:20 PM,26.6,24.8,93,29.81,0.2,South,11.5,-,N/A,Fog,Light Freezing Fog,180,2012-12-14 04:20:00
9:27 PM,24.8,24.8,100,29.81,0.5,South,15.0,-,N/A,Fog,Light Freezing Fog,170,2012-12-14 04:27:00
9:56 PM,24.1,23.0,96,29.91,0.8,South,5.8,-,N/A,,Mist,170,2012-12-14 04:56:00
10:56 PM,23.0,21.0,92,29.90,0.5,South,12.7,-,N/A,Fog,Light Freezing Fog,170,2012-12-14 05:56:00
11:56 PM,21.0,19.9,96,29.89,0.5,SSE,8.1,-,N/A,Fog,Light Freezing Fog,160,2012-12-14 06:56:00